RH
63 62 61 58 56 53 49 47 47 45 45 46 47 48 50 50 54 61 64 63 64 65 65 64 63 62 61 60 60 60 59 59 58 57 57 57 57 57 55 55 57 61 59 50 41 38 36 34 32 30 28 27 26 25 24 24 23 23 24 23 22 21 20
66 66 66 65 63 60 56 52 48 46 47 47 47 47 47 47 48 50 52 54 56 55 54 54 55 55 54 54 54 53 53 52 50 49 48 49 50 51 51 51 52 55 57 54 46 41 39 37 34 32 31 30 28 27 24 23 23 22 23 22 20 21 20
68 68 68 68 68 68 66 63 60 56 52 50 50 49 49 48 49 49 50 51 51 50 50 51 53 53 52 51 52 51 51 50 48 47 46 46 46 47 48 48 48 51 55 55 50 45 42 40 38 35 33 31 28 27 25 23 22 21 21 22 21 22 21
67 70 71 72 72 72 72 71 71 70 67 65 61 57 54 52 51 51 51 52 51 51 51 51 52 52 52 52 53 53 53 52 51 50 49 48 48 48 48 48 48 48 51 54 53 48 45 43 41 38 35 32 29 27 26 24 23 23 23 23 24 24 23
56 62 68 73 77 77 77 76 76 75 75 75 75 73 69 64 60 57 55 54 54 54 55 55 55 54 54 54 55 55 55 55 53 52 52 52 52 51 51 50 50 49 50 54 55 52 48 45 43 41 38 35 32 29 28 27 26 26 26 27 27 27 25
49 55 60 67 74 76 78 79 79 79 78 78 78 78 78 77 74 71 67 63 60 58 58 57 58 58 59 59 60 59 59 57 56 55 55 55 55 54 54 54 54 53 53 55 56 55 53 51 47 45 42 39 35 33 31 31 31 31 30 31 33 32 30
51 53 56 60 63 67 71 72 74 78 80 80 80 80 81 83 84 84 83 81 78 74 70 66 62 61 60 60 61 61 62 62 61 60 59 59 58 58 58 59 59 58 59 60 60 58 57 56 53 50 47 45 40 37 35 35 38 39 36 36 38 39 37
60 54 54 55 57 60 61 63 69 74 74 76 81 87 91 93 94 95 95 95 95 93 91 86 81 76 71 68 65 63 62 61 62 64 64 63 63 63 64 65 65 65 65 64 64 63 60 58 57 54 53 52 49 47 46 43 43 43 41 40 39 38 38
76 68 59 57 61 62 61 65 69 71 77 85 92 96 99 99 100 100 99 99 99 98 99 98 96 93 90 86 82 77 73 68 64 64 65 65 66 67 67 69 70 70 69 68 67 66 63 62 61 58 57 59 57 55 52 46 44 44 42 41 40 38 38
92 82 70 69 73 71 75 78 70 69 84 98 100 99 100 100 100 100 99 100 100 99 100 99 99 98 97 95 94 91 88 84 79 73 70 68 67 68 69 71 73 73 71 71 70 67 65 66 66 61 58 60 58 55 53 49 48 49 46 45 47 45 42
98 84 74 86 92 88 93 92 77 77 94 102 99 99 100 100 100 100 100 100 100 100 100 100 100 100 99 98 97 96 94 91 89 86 82 78 74 72 71 72 74 75 73 72 71 69 66 67 67 63 60 60 58 58 57 54 52 52 51 52 55 52 47
100 83 73 91 101 98 101 95 84 91 100 99 100 100 100 100 100 100 100 99 100 100 100 100 100 100 100 100 100 99 97 95 93 91 88 86 82 79 76 74 75 76 75 74 73 72 70 69 68 67 64 62 61 62 61 58 57 57 56 56 56 53 51
98 80 73 91 101 100 99 90 86 98 102 99 101 100 99 101 100 99 100 100 100 100 99 98 98 97 98 99 99 100 100 99 98 95 92 90 87 84 82 78 76 76 76 76 76 75 73 70 69 69 67 64 63 62 63 64 64 62 60 60 59 54 51
95 77 73 91 101 99 94 82 81 97 102 99 100 100 99 101 100 99 100 100 100 100 99 99 98 98 97 96 96 98 100 100 100 99 98 96 93 91 87 84 81 79 78 79 82 82 79 74 71 70 68 66 64 62 62 65 66 66 65 63 59 55 52
90 77 74 89 100 97 90 77 78 95 103 100 100 100 100 100 99 100 100 100 100 99 99 99 98 99 100 98 97 98 98 99 100 100 100 100 99 97 94 91 89 85 82 80 82 84 84 80 77 75 72 70 68 66 63 63 62 62 62 62 61 61 62
82 76 76 87 96 94 88 75 73 86 96 99 101 100 100 101 99 98 98 97 99 100 99 98 97 98 99 100 100 100 98 98 99 99 99 100 101 100 99 97 94 91 90 88 86 85 85 83 81 82 81 78 76 75 70 67 67 66 67 72 75 75 74
81 78 79 86 91 91 89 79 71 73 79 92 102 101 100 102 100 97 96 93 95 100 100 98 98 98 97 97 96 95 95 95 95 94 94 96 98 99 100 101 98 96 94 93 92 91 89 90 91 94 95 92 90 88 82 78 78 76 77 81 82 80 78
89 84 79 85 90 93 94 87 78 73 73 85 101 103 100 102 101 100 98 96 96 98 99 99 99 98 98 98 96 94 94 96 96 95 94 96 97 97 97 97 98 98 97 94 92 90 88 90 92 95 99 99 99 98 94 90 85 78 78 83 81 75 74
93 87 76 75 81 88 93 90 82 76 72 81 98 103 102 102 103 102 101 100 99 99 100 101 100 99 99 99 97 97 98 98 97 96 95 96 99 100 99 95 94 96 98 96 95 93 90 89 87 85 89 94 98 100 100 98 92 81 76 80 79 73 73
83 84 75 70 76 83 86 86 83 79 76 81 92 101 103 102 102 102 102 102 100 99 100 99 98 99 100 100 99 100 100 100 99 98 97 96 99 101 99 96 95 98 99 98 97 96 94 92 90 87 86 90 95 100 100 100 99 91 82 78 77 76 75
77 86 81 75 80 82 79 80 84 85 83 81 87 98 103 101 99 100 102 103 101 100 100 99 98 99 99 101 102 100 100 101 100 99 100 99 99 98 95 92 94 98 100 100 99 98 97 95 95 95 94 93 95 98 100 100 101 98 92 85 80 78 77
84 93 92 86 84 81 77 80 85 87 86 85 88 94 98 98 99 100 102 103 101 99 100 100 99 99 99 102 102 100 101 102 100 100 101 100 99 99 97 95 94 95 99 101 100 100 100 100 99 99 98 97 96 96 98 99 100 101 99 94 86 80 79
94 99 100 95 90 85 84 85 86 87 88 89 89 87 87 94 101 103 102 102 102 101 101 100 99 98 100 102 102 100 101 101 101 100 100 100 100 100 99 99 98 97 100 101 101 100 101 100 99 100 99 98 95 93 94 96 98 99 100 100 95 88 83
100 102 102 100 97 93 89 87 88 88 89 91 90 84 83 93 103 104 102 102 102 101 101 101 100 100 101 102 101 101 101 100 100 100 100 100 101 100 100 100 100 100 101 100 100 101 101 100 99 99 99 95 90 87 87 91 96 99 100 100 100 97 92
102 101 102 101 100 96 91 88 88 89 89 90 89 83 85 95 102 102 101 101 101 101 101 100 100 100 101 101 101 101 101 101 100 100 100 100 100 100 100 100 100 101 101 100 101 101 100 100 99 98 95 89 85 86 88 93 97 100 101 100 100 100 99
104 103 102 101 99 97 94 92 91 91 90 88 86 86 91 97 99 100 100 99 99 99 97 97 99 100 100 101 101 100 101 103 101 96 93 94 97 101 101 100 100 101 100 100 101 100 100 99 96 94 92 90 91 94 94 95 97 99 100 101 100 100 100
105 105 102 100 99 98 98 97 95 93 90 88 89 93 97 98 98 99 99 98 98 97 96 98 100 100 98 98 97 96 96 98 96 91 88 89 94 99 102 101 101 101 101 101 100 99 100 99 97 96 97 96 97 98 94 94 97 99 100 101 101 101 101
104 105 102 100 100 100 100 100 97 94 93 94 97 99 100 100 100 100 101 100 99 99 100 101 100 99 96 95 94 94 93 92 91 90 90 90 91 97 102 100 98 100 101 101 101 100 100 100 100 101 100 98 98 98 95 95 99 101 101 101 102 103 101
103 102 101 101 100 100 102 102 100 97 96 97 98 98 99 100 101 102 103 101 99 100 102 102 101 99 98 96 96 97 96 95 94 93 92 90 90 96 100 99 98 100 101 100 100 101 100 100 102 101 100 100 102 100 98 97 100 103 103 101 102 102 99
100 101 103 103 101 101 102 103 101 99 99 99 98 99 100 101 101 102 102 99 98 99 101 102 102 101 99 98 99 101 100 98 98 98 97 94 92 94 98 99 96 96 99 100 101 101 100 101 103 104 102 103 104 102 99 100 102 103 103 101 102 102 100
88 95 100 103 103 102 102 101 101 100 100 100 100 100 100 100 101 101 100 99 100 101 102 102 103 101 100 99 101 102 101 100 101 102 101 99 96 94 96 99 97 95 96 98 99 100 101 101 102 103 103 103 103 102 102 103 103 102 102 101 100 101 100
81 85 91 97 102 104 104 103 102 102 101 100 100 100 100 100 100 100 99 99 99 102 103 103 103 102 102 102 102 102 101 100 102 103 103 103 104 99 95 97 99 99 99 98 96 97 99 99 100 101 102 102 103 102 103 104 103 100 100 101 100 101 100
80 81 85 91 96 98 99 102 103 102 100 99 100 100 100 100 100 100 100 100 101 103 104 103 103 104 104 103 103 102 101 100 101 103 103 104 106 103 97 94 96 100 102 101 98 95 95 96 98 100 100 100 101 101 102 103 102 100 100 101 102 102 100
82 82 85 89 90 89 91 95 98 100 101 101 101 101 100 100 100 100 99 96 96 100 103 103 104 105 104 104 103 102 102 101 100 101 102 102 103 103 100 96 95 99 102 101 100 99 97 96 97 100 101 100 100 100 100 101 102 102 101 101 101 101 100
88 83 83 88 90 89 88 88 90 95 100 102 102 100 99 100 101 102 99 93 92 97 102 104 105 106 104 103 103 102 103 103 101 100 101 101 101 102 101 99 99 100 102 102 102 103 101 98 98 100 102 103 102 101 101 100 101 102 102 102 101 100 99
95 88 84 86 88 88 89 87 87 92 99 102 101 100 101 102 103 104 103 99 98 99 101 102 103 104 103 103 103 104 104 102 101 101 100 101 102 102 101 101 101 101 102 104 104 104 102 101 101 102 103 104 103 101 102 102 100 100 102 102 102 102 101
Wind_Speed
5 6 6 7 8 10 12 14 15 16 18 20 21 23 24 25 26 27 29 29 30 30 30 31 32 33 33 31 31 32 31 30 30 30 31 30 30 30 28 28 24 17 19 25 23 22 24 23 23 27 29 30 32 34 34 35 37 38 38 39 39 39 40
6 6 6 6 7 7 8 10 12 13 15 18 20 22 24 25 26 28 29 29 30 30 30 32 33 33 32 31 32 33 31 30 30 29 30 30 29 30 29 27 27 22 18 22 24 22 23 24 24 28 31 32 35 36 36 36 38 38 39 39 39 40 41
7 7 6 6 6 6 7 7 8 9 11 14 17 20 22 24 26 27 29 30 30 30 30 31 32 32 32 31 32 33 31 30 31 29 30 30 29 30 30 28 29 28 22 23 26 25 24 24 25 28 31 32 34 36 36 37 38 39 39 40 40 41 42
8 7 7 7 7 7 7 7 7 8 9 10 12 15 18 20 23 25 27 29 29 29 30 31 32 32 30 30 31 32 31 29 30 30 30 31 30 29 30 29 30 32 29 26 27 28 25 24 25 28 29 30 32 34 36 37 38 38 39 40 40 41 42
10 9 9 9 9 9 8 8 8 8 9 9 10 12 14 16 18 21 24 26 27 28 28 29 30 30 29 29 30 30 29 29 29 30 30 31 31 30 30 30 30 33 33 29 29 30 26 24 25 26 26 28 30 32 34 35 37 37 37 38 39 40 42
11 11 10 10 10 10 10 9 9 9 10 10 10 11 13 14 16 18 20 22 24 25 26 27 28 29 27 27 29 29 28 28 28 29 30 31 31 30 30 30 31 31 32 32 32 32 29 25 25 26 26 27 29 30 32 33 33 35 36 36 37 39 40
12 12 11 10 10 10 10 10 9 10 10 10 11 12 13 15 16 17 18 19 20 21 22 25 26 27 27 27 28 28 27 27 27 27 29 30 30 29 29 30 30 30 30 30 31 31 30 27 25 26 28 27 27 29 32 31 28 29 33 35 35 36 38
13 13 12 12 11 11 10 10 9 10 11 11 12 13 15 16 17 19 19 20 20 20 20 22 23 24 25 26 27 28 28 28 28 28 28 28 27 27 28 28 28 27 27 28 27 27 28 26 24 25 26 24 22 24 28 29 26 26 29 31 33 36 37
13 14 14 14 14 13 12 12 11 11 11 12 14 16 17 18 18 19 21 21 22 22 21 22 22 22 23 23 24 25 26 27 28 29 29 29 27 26 27 27 27 25 25 24 23 25 25 22 22 24 22 20 22 24 25 26 27 28 28 26 30 35 37
12 15 16 15 15 15 14 14 14 12 12 14 15 16 17 18 18 18 19 21 21 21 21 21 22 22 22 22 23 23 24 25 26 27 29 30 29 28 27 26 26 25 25 23 21 22 22 18 19 24 23 22 25 26 25 25 25 27 25 21 21 27 31
11 15 17 14 13 14 14 15 15 14 14 15 15 16 16 17 18 18 18 19 19 20 20 20 20 21 21 21 22 22 23 24 25 26 28 30 30 31 31 29 27 25 25 23 22 23 23 19 21 25 24 23 25 24 24 26 26 25 24 20 16 15 19
12 17 17 13 12 13 13 15 16 15 15 16 15 15 16 17 18 18 18 18 19 19 20 20 20 20 20 20 20 21 22 23 25 26 27 29 30 31 33 33 32 30 28 25 23 23 24 24 24 25 24 24 24 22 23 26 26 26 25 22 20 18 17
14 18 17 14 13 13 15 17 17 15 15 16 15 16 17 17 17 17 17 17 18 19 20 20 21 21 21 20 19 20 21 22 23 25 26 28 30 32 33 34 36 36 35 32 29 27 28 29 27 25 26 25 24 23 24 24 25 26 26 24 24 26 24
17 19 17 14 14 15 17 18 17 16 15 16 16 17 17 17 16 17 17 17 17 18 19 19 20 22 22 21 20 20 20 21 23 24 26 28 29 31 33 33 35 37 37 38 36 33 35 35 31 29 30 28 25 26 27 25 25 26 27 28 30 32 30
18 19 18 15 15 16 18 18 17 16 16 16 17 17 17 17 17 17 17 17 17 17 18 18 19 20 21 21 20 19 19 20 22 23 25 26 28 29 30 32 34 34 35 37 39 39 40 40 38 36 35 33 29 30 31 30 30 30 30 31 31 30 29
18 19 18 17 17 18 19 18 17 16 16 17 17 18 18 18 19 19 19 18 18 17 17 17 17 19 19 20 19 18 18 19 21 23 24 24 26 27 28 30 31 31 32 34 36 38 39 41 40 38 37 37 34 33 32 30 29 29 28 24 21 21 24
19 18 18 17 17 18 19 19 18 17 17 17 17 17 18 18 20 20 20 20 19 17 17 17 16 17 18 20 20 20 20 21 23 25 26 25 25 25 26 27 27 27 29 31 32 34 35 36 36 34 33 34 33 33 33 29 26 26 24 19 13 13 17
19 19 18 17 17 17 19 20 19 17 17 16 16 16 17 18 20 21 21 21 20 19 18 17 16 16 17 19 20 20 20 20 21 24 26 26 26 27 26 26 24 25 27 29 30 32 34 35 35 34 34 33 32 33 33 31 30 28 24 20 16 14 14
19 19 19 18 17 17 18 20 19 17 16 16 15 16 16 18 19 20 21 21 21 21 19 17 17 16 16 18 19 19 19 19 20 22 24 25 25 25 25 24 23 24 26 26 27 30 32 34 36 36 37 36 34 34 34 34 34 32 26 24 22 19 14
18 20 19 18 18 17 18 19 19 17 15 15 15 15 16 17 19 20 21 21 20 21 21 20 20 19 17 17 19 20 20 20 20 21 23 24 24 23 24 24 24 25 26 26 27 28 30 32 34 34 34 34 33 33 33 34 35 34 31 28 25 23 19
19 19 20 18 18 18 18 18 17 17 16 15 15 15 16 17 19 20 21 20 19 20 21 21 21 21 20 20 20 21 21 21 20 21 22 23 24 25 27 28 28 27 27 26 27 28 28 29 30 30 31 31 30 29 30 31 33 34 35 33 30 26 22
19 20 20 19 18 18 18 17 17 17 16 15 16 16 17 18 19 18 19 20 20 20 21 21 22 23 23 22 21 22 22 22 22 22 22 24 25 27 28 29 30 29 27 26 26 26 26 26 26 26 27 28 28 28 28 29 30 33 35 36 36 32 27
19 19 20 20 19 19 18 18 18 17 17 16 17 19 19 18 18 17 18 20 21 21 21 22 23 24 24 22 22 24 24 23 23 22 22 23 25 27 28 28 29 28 27 26 25 25 25 24 24 24 25 26 27 28 28 29 29 31 33 34 36 36 34
18 18 19 20 20 20 20 20 20 19 18 17 19 21 20 18 17 18 18 20 22 22 22 23 24 24 23 23 24 25 24 23 22 21 22 24 26 27 27 26 26 25 25 24 23 22 23 23 23 24 25 26 28 29 28 29 29 29 29 30 32 34 35
19 18 19 19 20 21 22 22 22 21 20 19 21 21 19 17 17 18 19 20 22 22 22 23 24 24 24 24 23 23 23 23 22 22 23 25 25 25 25 25 25 24 23 21 20 21 21 22 23 24 26 28 29 28 27 26 26 26 25 24 25 28 31
18 18 18 19 20 21 22 22 22 22 21 21 21 20 18 17 19 19 19 20 21 23 24 24 24 23 23 22 22 22 22 23 24 24 25 24 22 22 22 23 24 23 22 20 20 21 21 22 24 25 27 26 25 25 25 24 24 24 24 23 21 21 24
18 17 18 18 19 20 21 21 21 21 22 22 20 19 18 20 21 20 20 21 22 23 24 24 23 22 22 22 22 22 22 22 23 24 23 22 21 19 19 21 22 23 23 21 21 21 22 23 24 23 23 23 23 23 25 25 23 22 23 23 21 19 19
19 19 19 19 19 20 20 21 20 21 21 20 19 19 21 21 22 21 21 22 22 23 24 23 23 23 23 23 22 22 22 22 22 21 21 21 20 19 18 18 19 20 22 22 22 22 21 20 20 20 21 22 22 23 24 23 22 22 22 21 19 17 17
20 20 20 20 20 20 19 20 21 20 20 19 20 21 22 22 22 22 22 22 22 23 23 22 22 22 21 21 21 21 21 21 21 20 20 20 19 19 18 17 17 17 18 19 20 22 21 19 18 19 21 21 20 21 23 22 21 21 21 19 18 16 16
20 21 21 22 23 22 20 21 23 22 21 21 21 21 21 22 22 22 22 22 22 22 22 21 20 19 19 20 20 20 20 20 20 20 19 19 19 19 18 17 16 16 17 17 17 17 19 19 18 18 18 18 18 20 21 20 20 20 19 18 16 15 16
18 20 20 21 23 23 22 22 23 22 21 21 21 21 21 21 21 21 21 21 21 21 20 19 18 18 18 19 19 19 20 20 20 19 19 19 19 19 17 16 16 16 16 16 15 14 12 13 14 16 17 17 19 19 19 18 18 19 18 18 17 16 15
19 20 19 20 21 22 22 22 22 21 21 21 21 21 21 21 20 21 21 20 20 20 19 18 18 18 19 19 19 19 20 20 20 20 19 19 18 18 18 17 16 16 16 16 14 12 11 9 9 10 12 14 16 16 16 16 16 17 18 18 17 17 16
19 19 20 19 20 20 21 22 22 21 21 21 20 20 20 20 20 20 19 18 18 18 19 19 19 19 19 19 19 20 21 21 20 20 20 19 18 19 19 18 17 16 16 16 15 13 12 10 9 8 8 10 12 13 14 15 16 17 17 16 15 15 16
20 20 21 21 20 20 21 22 21 21 20 20 20 20 20 20 20 19 18 17 17 17 18 19 19 19 20 20 20 20 20 20 20 20 20 20 20 20 20 19 18 16 15 15 15 15 14 13 12 11 10 11 12 13 15 16 16 16 16 15 15 14 15
24 24 22 22 22 22 22 21 20 20 20 20 20 20 19 19 19 19 18 18 18 18 18 19 19 20 20 20 20 20 20 20 21 21 20 20 20 20 20 19 18 17 16 15 15 16 16 15 14 14 13 13 14 14 14 15 15 16 15 15 15 14 14
26 26 25 24 24 22 21 20 19 19 20 20 20 19 17 17 18 18 18 19 20 19 19 19 19 20 20 20 21 21 21 20 21 21 20 20 20 19 20 19 19 18 18 16 16 16 16 16 16 16 15 15 15 16 16 16 16 15 15 15 15 14 14
Wind_Direction
326 312 298 287 282 280 279 279 278 276 272 267 264 262 261 261 258 254 252 251 250 249 247 248 248 249 250 249 249 249 247 246 246 244 244 243 242 241 238 235 235 241 265 267 258 255 258 254 252 251 251 253 256 255 252 252 252 251 250 249 250 251 248
343 335 323 307 291 281 277 277 279 279 276 271 268 266 264 262 260 258 256 254 252 252 252 252 252 253 254 253 252 252 250 249 248 246 245 243 240 241 238 233 235 241 256 267 263 255 255 255 250 250 252 251 253 255 254 253 252 250 249 250 249 249 248
352 344 336 324 311 300 290 283 279 278 277 276 273 271 269 267 264 262 261 259 258 259 259 258 257 257 258 257 257 256 254 253 252 249 247 246 242 242 242 236 236 241 249 263 267 261 256 254 250 249 251 251 252 254 253 252 252 251 250 249 247 246 246
5 359 352 345 338 330 320 309 298 289 284 282 282 280 278 276 273 270 268 267 266 266 265 263 263 262 263 262 260 259 258 255 254 252 249 249 246 243 244 241 237 240 245 256 266 265 258 255 254 253 252 250 250 250 248 249 249 248 246 246 245 244 245
2 360 358 357 352 345 340 332 324 315 305 297 292 289 286 284 282 279 278 276 275 273 271 269 268 268 268 266 264 262 261 259 257 256 253 251 249 246 245 244 241 241 244 249 259 264 262 258 256 256 254 249 245 245 245 245 245 244 243 243 243 243 244
1 357 356 354 349 345 339 334 331 326 320 313 305 301 296 293 290 287 286 284 282 281 278 276 275 274 272 269 267 266 265 264 262 259 256 253 251 249 247 246 244 243 244 247 253 261 263 259 254 254 253 249 244 242 241 241 241 242 241 241 240 240 241
1 360 360 354 348 345 337 332 331 326 322 318 313 311 308 306 304 301 297 295 292 290 286 283 281 279 277 274 272 271 269 268 266 263 260 257 254 251 248 245 245 243 243 246 252 257 260 259 256 254 253 252 247 242 240 237 235 238 238 237 237 238 238
0 359 0 357 353 350 344 340 338 330 325 326 326 326 322 319 316 313 310 308 305 302 298 294 290 287 284 281 278 277 275 272 269 266 264 262 258 253 249 245 244 243 241 244 248 253 256 258 256 253 251 249 240 234 235 234 231 236 238 236 237 238 238
3 1 358 356 355 354 353 351 346 341 342 342 339 334 327 323 320 317 315 312 310 308 305 302 299 296 293 290 287 284 281 277 273 269 266 264 261 256 252 248 245 243 241 243 246 251 254 255 254 250 245 238 230 227 234 235 232 237 241 238 239 241 238
3 2 358 355 353 354 356 353 348 351 352 345 338 333 328 324 321 318 317 315 313 311 309 307 304 300 298 295 292 288 284 281 278 273 269 266 263 258 254 250 247 245 243 243 245 249 251 251 251 250 243 239 238 235 234 233 229 233 238 237 239 244 241
353 354 359 358 352 352 352 346 346 351 345 338 336 333 329 325 321 319 316 314 314 313 312 312 309 306 304 299 293 290 286 283 279 276 273 270 266 261 256 252 249 248 246 244 246 249 250 248 251 253 248 246 247 240 232 230 227 227 229 226 229 243 244
338 346 357 360 353 348 344 342 345 345 338 335 335 333 328 324 321 319 316 312 311 310 310 310 309 309 307 303 299 295 290 285 281 277 274 272 269 265 262 256 252 250 247 245 247 250 250 247 251 256 252 247 247 242 234 231 228 225 225 223 227 236 238
329 340 350 354 349 341 337 341 345 340 334 334 334 332 329 324 321 319 316 313 311 309 307 307 306 306 305 305 305 301 296 289 284 281 277 273 269 265 264 262 258 255 252 249 248 250 252 251 251 255 254 250 246 242 235 229 225 225 225 225 229 235 237
324 335 343 345 340 333 331 337 341 336 332 332 332 331 330 324 321 319 315 313 311 309 308 307 307 306 304 303 302 301 300 295 289 283 277 272 268 265 263 262 261 259 257 253 250 249 252 254 253 254 256 255 249 242 238 232 227 226 226 228 234 238 240
321 331 336 335 331 326 326 331 336 333 329 329 329 330 329 324 322 320 316 313 310 308 307 306 306 305 304 302 300 298 297 298 296 291 283 274 269 267 265 263 261 260 259 258 254 252 254 256 256 255 256 256 252 246 244 241 239 237 234 233 237 240 238
321 328 329 326 323 321 322 326 330 330 326 326 326 326 325 323 322 321 317 314 312 309 307 306 305 304 303 302 303 302 300 301 304 303 297 288 278 272 267 265 263 262 260 258 257 257 257 259 259 257 255 255 252 249 247 244 242 239 234 230 233 236 233
319 322 322 319 316 317 318 320 324 326 323 323 324 323 321 320 320 320 318 316 315 312 309 307 304 304 303 302 303 304 305 306 306 304 301 299 293 286 278 272 270 267 263 259 259 260 260 261 261 259 256 254 251 248 245 237 233 232 225 219 225 234 230
315 316 317 316 312 313 313 314 318 322 321 320 321 320 318 317 318 318 317 317 317 314 311 308 306 305 304 302 303 304 306 307 306 303 300 300 299 294 288 284 281 275 269 265 262 262 261 262 261 260 260 257 253 250 244 232 228 230 222 215 224 234 230
314 313 314 314 313 312 310 311 315 319 320 319 318 316 315 316 316 315 315 316 316 315 313 311 309 307 304 303 304 304 305 304 304 301 299 300 299 293 288 288 287 281 275 270 265 262 261 261 262 262 261 259 256 253 248 238 232 229 222 219 226 231 228
313 311 311 310 311 309 308 310 313 316 319 318 315 314 313 313 313 311 310 311 311 310 310 310 309 309 307 305 304 303 302 301 299 297 296 296 294 290 288 291 291 285 280 273 267 264 263 263 263 262 261 260 257 253 250 244 237 230 224 224 228 228 226
311 309 307 308 308 307 308 311 312 313 316 316 314 312 309 308 309 307 305 304 302 302 304 306 307 308 307 307 305 303 302 300 297 296 294 291 287 284 286 289 289 286 283 277 271 268 264 261 260 258 256 256 255 252 250 247 241 234 228 227 227 228 228
309 306 306 306 307 307 310 313 314 312 312 312 311 311 308 305 305 304 300 298 296 297 299 300 302 304 305 305 304 303 302 300 298 296 292 288 287 286 286 286 285 284 282 277 272 268 264 259 255 252 251 250 250 250 248 246 244 239 233 230 229 230 231
305 303 302 303 306 309 310 312 314 313 311 310 309 312 312 307 301 300 298 294 292 293 296 298 300 303 303 302 301 302 302 301 299 297 293 291 291 290 289 287 283 280 277 273 269 264 260 257 252 247 245 245 246 248 247 245 244 242 238 235 233 233 234
303 302 301 302 305 307 310 313 316 315 312 309 309 312 313 307 300 300 300 295 291 291 293 296 300 301 300 299 298 299 299 298 297 296 295 296 296 294 291 288 283 277 272 269 265 260 257 255 251 244 241 244 248 250 250 246 244 244 242 239 237 235 235
303 302 300 300 301 304 309 314 316 315 314 310 310 312 312 306 302 301 300 296 292 291 292 295 297 298 297 296 296 297 298 297 296 297 299 300 300 297 292 287 282 278 273 268 264 263 260 256 251 246 246 250 251 250 249 245 242 243 242 242 241 238 236
298 298 297 296 296 300 306 310 311 311 311 310 311 312 310 306 304 302 299 296 293 292 293 295 296 297 296 294 294 296 296 295 296 300 304 306 305 301 295 288 283 277 273 269 268 267 263 259 256 252 250 250 247 244 243 243 241 242 242 242 242 240 238
293 292 290 291 293 297 301 304 306 306 308 311 313 311 308 306 304 302 300 298 296 296 297 297 296 296 295 294 293 292 292 294 297 302 307 310 309 306 301 295 288 279 272 269 269 269 267 262 257 251 245 241 238 238 241 242 239 239 240 241 241 241 241
288 286 285 287 291 297 300 300 300 302 306 309 310 308 306 304 302 301 300 298 298 299 298 295 294 295 296 295 294 293 293 297 300 303 307 311 311 310 308 307 304 293 281 273 269 269 268 261 249 240 236 234 233 235 239 240 237 236 238 239 237 237 241
282 283 286 288 289 293 295 294 296 299 302 303 301 300 300 298 297 298 297 296 297 298 296 294 293 294 295 295 294 294 295 298 301 303 306 311 313 312 313 315 317 312 302 291 278 267 261 253 241 234 232 230 228 232 237 237 233 233 235 234 231 232 237
275 278 283 286 286 286 285 286 291 295 297 297 296 295 294 293 294 294 294 295 297 296 293 291 290 291 294 294 292 292 293 295 298 299 301 308 312 313 314 314 315 317 317 315 304 283 263 250 239 231 228 224 224 230 235 233 231 231 231 227 225 229 235
281 280 280 281 282 284 283 283 287 292 293 293 294 293 293 293 294 294 293 295 297 293 288 287 289 291 294 293 291 290 291 293 295 294 296 301 307 311 312 311 311 314 316 319 320 314 293 268 247 234 228 224 224 228 232 230 229 229 227 224 224 226 229
291 288 284 281 280 282 284 285 287 290 291 292 292 293 294 294 294 295 294 295 294 289 285 285 288 290 292 293 291 291 293 295 295 294 295 296 298 303 307 307 308 310 308 306 309 313 312 301 277 252 238 230 228 229 230 227 225 224 223 224 226 226 228
294 293 291 286 282 282 284 286 288 290 291 292 292 293 295 296 295 294 294 295 293 289 287 289 288 287 288 290 291 292 295 297 297 297 297 296 293 296 301 304 307 307 301 296 295 295 293 292 285 271 255 242 235 232 229 226 225 223 223 224 224 226 229
298 298 296 293 291 291 291 291 292 292 290 291 293 294 296 296 295 291 289 291 292 291 289 288 286 284 287 289 292 294 296 297 298 299 298 296 295 295 298 301 304 303 298 293 290 287 283 278 272 265 255 246 240 236 232 229 227 224 222 221 223 224 226
298 301 301 299 297 297 297 298 298 296 293 292 293 296 298 297 294 292 290 292 295 294 290 287 283 283 285 288 291 295 296 296 298 300 299 298 298 298 298 299 299 298 296 292 286 281 278 275 270 263 255 249 244 239 234 232 231 229 226 224 224 224 226
295 301 304 303 301 299 300 303 304 301 297 294 294 296 297 293 290 290 291 292 294 294 291 288 285 284 286 288 289 292 295 296 297 299 299 300 299 297 296 296 295 294 294 290 284 279 276 272 268 264 257 249 243 239 237 237 237 236 233 231 230 228 228